Location: Augsburg
(48.3836°N, 10.8929°E)
Time: 02:47:36
(UTC+01:00)

ISS - Pass Details

Date: 08 December 2021
Orbit: 413 x 422 km, 51.6° (Epoch: 24 January)

Event Time Altitude Azimuth Distance (km) Brightness Sun altitude
Rises 17:54:34 0° 286° (WNW) 2,384 1.1 -14.6°
Reaches altitude 10° 17:57:06 10° 267° (W) 1,513 0.3 -15.0°
Maximum altitude 17:59:31 18° 222° (SW) 1,097 -0.9 -15.4°
Drops below altitude 10° 18:01:56 10° 176° (S) 1,501 -0.8 -15.8°
Enters shadow 18:05:58 -5° 151° (SSE) 2,945 0.4 -16.4°
